Year,Month,Day,Hour,Minute,Value (Times are PST for insolation in W/m^2)
2013,10,01,00,00,0.00
2013,10,01,00,01,0.00
2013,10,01,00,02,0.00
2013,10,01,00,03,0.00
2013,10,01,00,04,0.00
2013,10,01,00,05,0.00
2013,10,01,00,06,0.00
2013,10,01,00,07,0.00
2013,10,01,00,08,0.00
2013,10,01,00,09,0.00
2013,10,01,00,10,0.00
2013,10,01,00,11,0.00
2013,10,01,00,12,0.00
2013,10,01,00,13,0.00
2013,10,01,00,14,0.00
2013,10,01,00,15,0.00
2013,10,01,00,16,0.00
2013,10,01,00,17,0.00
2013,10,01,00,18,0.00
2013,10,01,00,19,0.00
2013,10,01,00,20,0.00
2013,10,01,00,21,0.00
2013,10,01,00,22,0.00
2013,10,01,00,23,0.00
2013,10,01,00,24,0.00
2013,10,01,00,25,0.00
2013,10,01,00,26,0.00
2013,10,01,00,27,0.00
2013,10,01,00,28,0.00
2013,10,01,00,29,0.00
2013,10,01,00,30,0.00
2013,10,01,00,31,0.00
2013,10,01,00,32,0.00
2013,10,01,00,33,0.00
2013,10,01,00,34,0.00
2013,10,01,00,35,0.00
2013,10,01,00,36,0.00
2013,10,01,00,37,0.00
2013,10,01,00,38,0.00
2013,10,01,00,39,0.00
2013,10,01,00,40,0.00
2013,10,01,00,41,0.00
2013,10,01,00,42,0.00
2013,10,01,00,43,0.00
2013,10,01,00,44,0.00
2013,10,01,00,45,0.00
2013,10,01,00,46,0.00
2013,10,01,00,47,0.00
2013,10,01,00,48,0.00
2013,10,01,00,49,0.00
2013,10,01,00,50,0.00
2013,10,01,00,51,0.00
2013,10,01,00,52,0.00
2013,10,01,00,53,0.00
2013,10,01,00,54,0.00
2013,10,01,00,55,0.00
2013,10,01,00,56,0.00
2013,10,01,00,57,0.00
2013,10,01,00,58,0.00
2013,10,01,00,59,0.00
2013,10,01,01,00,0.00
2013,10,01,01,01,0.00
2013,10,01,01,02,0.00
2013,10,01,01,03,0.00
2013,10,01,01,04,0.00
2013,10,01,01,05,0.00
2013,10,01,01,06,0.00
2013,10,01,01,07,0.00
2013,10,01,01,08,0.00
2013,10,01,01,09,0.00
2013,10,01,01,10,0.00
2013,10,01,01,11,0.00
2013,10,01,01,12,0.00
2013,10,01,01,13,0.00
2013,10,01,01,14,0.00
2013,10,01,01,15,0.00
2013,10,01,01,16,0.00
2013,10,01,01,17,0.00
2013,10,01,01,18,0.00
2013,10,01,01,19,0.00
2013,10,01,01,20,0.00
2013,10,01,01,21,0.00
2013,10,01,01,22,0.00
2013,10,01,01,23,0.00
2013,10,01,01,24,0.00
2013,10,01,01,25,0.00
2013,10,01,01,26,0.00
2013,10,01,01,27,0.00
2013,10,01,01,28,0.00
2013,10,01,01,29,0.00
2013,10,01,01,30,0.00
2013,10,01,01,31,0.00
2013,10,01,01,32,0.00
2013,10,01,01,33,0.00
2013,10,01,01,34,0.00
2013,10,01,01,35,0.00
2013,10,01,01,36,0.00
2013,10,01,01,37,0.00
2013,10,01,01,38,0.00
2013,10,01,01,39,0.00
2013,10,01,01,40,0.00
2013,10,01,01,41,0.00
2013,10,01,01,42,0.00
2013,10,01,01,43,0.00
2013,10,01,01,44,0.00
2013,10,01,01,45,0.00
2013,10,01,01,46,0.00
2013,10,01,01,47,0.00
2013,10,01,01,48,0.00
2013,10,01,01,49,0.00
2013,10,01,01,50,0.00
2013,10,01,01,51,0.00
2013,10,01,01,52,0.00
2013,10,01,01,53,0.00
2013,10,01,01,54,0.00
2013,10,01,01,55,0.00
2013,10,01,01,56,0.00
2013,10,01,01,57,0.00
2013,10,01,01,58,0.00
2013,10,01,01,59,0.00
2013,10,01,02,00,0.00
2013,10,01,02,01,0.00
2013,10,01,02,02,0.00
2013,10,01,02,03,0.00
2013,10,01,02,04,0.00
2013,10,01,02,05,0.00
2013,10,01,02,06,0.00
2013,10,01,02,07,0.00
2013,10,01,02,08,0.00
2013,10,01,02,09,0.00
2013,10,01,02,10,0.00
2013,10,01,02,11,0.00
2013,10,01,02,12,0.00
2013,10,01,02,13,0.00
2013,10,01,02,14,0.00
2013,10,01,02,15,0.00
2013,10,01,02,16,0.00
2013,10,01,02,17,0.00
2013,10,01,02,18,0.00
2013,10,01,02,19,0.00
2013,10,01,02,20,0.00
2013,10,01,02,21,0.00
2013,10,01,02,22,0.00
2013,10,01,02,23,0.00
2013,10,01,02,24,0.00
2013,10,01,02,25,0.00
2013,10,01,02,26,0.00
2013,10,01,02,27,0.00
2013,10,01,02,28,0.00
2013,10,01,02,29,0.00
2013,10,01,02,30,0.00
2013,10,01,02,31,0.00
2013,10,01,02,32,0.00
2013,10,01,02,33,0.00
2013,10,01,02,34,0.00
2013,10,01,02,35,0.00
2013,10,01,02,36,0.00
2013,10,01,02,37,0.00
2013,10,01,02,38,0.00
2013,10,01,02,39,0.00
2013,10,01,02,40,0.00
2013,10,01,02,41,0.00
2013,10,01,02,42,0.00
2013,10,01,02,43,0.00
2013,10,01,02,44,0.00
2013,10,01,02,45,0.00
2013,10,01,02,46,0.00
2013,10,01,02,47,0.00
2013,10,01,02,48,0.00
2013,10,01,02,49,0.00
2013,10,01,02,50,0.00
2013,10,01,02,51,0.00
2013,10,01,02,52,0.00
2013,10,01,02,53,0.00
2013,10,01,02,54,0.00
2013,10,01,02,55,0.00
2013,10,01,02,56,0.00
2013,10,01,02,57,0.00
2013,10,01,02,58,0.00
2013,10,01,02,59,0.00
2013,10,01,03,00,0.00
2013,10,01,03,01,0.00
2013,10,01,03,02,0.00
2013,10,01,03,03,0.00
2013,10,01,03,04,0.00
2013,10,01,03,05,0.00
2013,10,01,03,06,0.00
2013,10,01,03,07,0.00
2013,10,01,03,08,0.00
2013,10,01,03,09,0.00
2013,10,01,03,10,0.00
2013,10,01,03,11,0.00
2013,10,01,03,12,0.00
2013,10,01,03,13,0.00
2013,10,01,03,14,0.00
2013,10,01,03,15,0.00
2013,10,01,03,16,0.00
2013,10,01,03,17,0.00
2013,10,01,03,18,0.00
2013,10,01,03,19,0.00
2013,10,01,03,20,0.00
2013,10,01,03,21,0.00
2013,10,01,03,22,0.00
2013,10,01,03,23,0.00
2013,10,01,03,24,0.00
2013,10,01,03,25,0.00
2013,10,01,03,26,0.00
2013,10,01,03,27,0.00
2013,10,01,03,28,0.00
2013,10,01,03,29,0.00
2013,10,01,03,30,0.00
2013,10,01,03,31,0.00
2013,10,01,03,32,0.00
2013,10,01,03,33,0.00
2013,10,01,03,34,0.00
2013,10,01,03,35,0.00
2013,10,01,03,36,0.00
2013,10,01,03,37,0.00
2013,10,01,03,38,0.00
2013,10,01,03,39,0.00
2013,10,01,03,40,0.00
2013,10,01,03,41,0.00
2013,10,01,03,42,0.00
2013,10,01,03,43,0.00
2013,10,01,03,44,0.00
2013,10,01,03,45,0.00
2013,10,01,03,46,0.00
2013,10,01,03,47,0.00
2013,10,01,03,48,0.00
2013,10,01,03,49,0.00
2013,10,01,03,50,0.00
2013,10,01,03,51,0.00
2013,10,01,03,52,0.00
2013,10,01,03,53,0.00
2013,10,01,03,54,0.00
2013,10,01,03,55,0.00
2013,10,01,03,56,0.00
2013,10,01,03,57,0.00
2013,10,01,03,58,0.00
2013,10,01,03,59,0.00
2013,10,01,04,00,0.00
2013,10,01,04,01,0.00
2013,10,01,04,02,0.00
2013,10,01,04,03,0.00
2013,10,01,04,04,0.00
2013,10,01,04,05,0.00
2013,10,01,04,06,0.00
2013,10,01,04,07,0.00
2013,10,01,04,08,0.00
2013,10,01,04,09,0.00
2013,10,01,04,10,0.00
2013,10,01,04,11,0.00
2013,10,01,04,12,0.00
2013,10,01,04,13,0.00
2013,10,01,04,14,0.00
2013,10,01,04,15,0.00
2013,10,01,04,16,0.00
2013,10,01,04,17,0.00
2013,10,01,04,18,0.00
2013,10,01,04,19,0.00
2013,10,01,04,20,0.00
2013,10,01,04,21,0.00
2013,10,01,04,22,0.00
2013,10,01,04,23,0.00
2013,10,01,04,24,0.00
2013,10,01,04,25,0.00
2013,10,01,04,26,0.00
2013,10,01,04,27,0.00
2013,10,01,04,28,0.00
2013,10,01,04,29,0.00
2013,10,01,04,30,0.00
2013,10,01,04,31,0.00
2013,10,01,04,32,0.00
2013,10,01,04,33,0.00
2013,10,01,04,34,0.00
2013,10,01,04,35,0.00
2013,10,01,04,36,0.00
2013,10,01,04,37,0.00
2013,10,01,04,38,0.00
2013,10,01,04,39,0.00
2013,10,01,04,40,0.00
2013,10,01,04,41,0.00
2013,10,01,04,42,0.00
2013,10,01,04,43,0.00
2013,10,01,04,44,0.00
2013,10,01,04,45,0.00
2013,10,01,04,46,0.00
2013,10,01,04,47,0.00
2013,10,01,04,48,0.00
2013,10,01,04,49,0.00
2013,10,01,04,50,0.00
2013,10,01,04,51,0.00
2013,10,01,04,52,0.00
2013,10,01,04,53,0.00
2013,10,01,04,54,0.00
2013,10,01,04,55,0.00
2013,10,01,04,56,0.00
2013,10,01,04,57,0.00
2013,10,01,04,58,0.00
2013,10,01,04,59,0.00
2013,10,01,05,00,0.00
2013,10,01,05,01,0.00
2013,10,01,05,02,0.00
2013,10,01,05,03,0.00
2013,10,01,05,04,0.00
2013,10,01,05,05,0.00
2013,10,01,05,06,0.00
2013,10,01,05,07,0.00
2013,10,01,05,08,0.00
2013,10,01,05,09,0.00
2013,10,01,05,10,0.00
2013,10,01,05,11,0.00
2013,10,01,05,12,0.00
2013,10,01,05,13,0.00
2013,10,01,05,14,0.00
2013,10,01,05,15,0.00
2013,10,01,05,16,0.00
2013,10,01,05,17,0.00
2013,10,01,05,18,0.00
2013,10,01,05,19,0.00
2013,10,01,05,20,0.00
2013,10,01,05,21,0.00
2013,10,01,05,22,0.00
2013,10,01,05,23,0.00
2013,10,01,05,24,0.00
2013,10,01,05,25,0.00
2013,10,01,05,26,0.00
2013,10,01,05,27,0.00
2013,10,01,05,28,0.00
2013,10,01,05,29,0.00
2013,10,01,05,30,0.00
2013,10,01,05,31,0.00
2013,10,01,05,32,0.00
2013,10,01,05,33,0.00
2013,10,01,05,34,0.00
2013,10,01,05,35,0.00
2013,10,01,05,36,0.00
2013,10,01,05,37,0.00
2013,10,01,05,38,0.00
2013,10,01,05,39,0.00
2013,10,01,05,40,0.00
2013,10,01,05,41,0.00
2013,10,01,05,42,0.00
2013,10,01,05,43,0.00
2013,10,01,05,44,0.00
2013,10,01,05,45,0.00
2013,10,01,05,46,0.00
2013,10,01,05,47,0.00
2013,10,01,05,48,0.00
2013,10,01,05,49,0.00
2013,10,01,05,50,0.00
2013,10,01,05,51,0.00
2013,10,01,05,52,0.00
2013,10,01,05,53,0.00
2013,10,01,05,54,0.00
2013,10,01,05,55,0.00
2013,10,01,05,56,0.00
2013,10,01,05,57,0.00
2013,10,01,05,58,0.00
2013,10,01,05,59,0.00
2013,10,01,06,00,0.00
2013,10,01,06,01,0.00
2013,10,01,06,02,0.00
2013,10,01,06,03,0.00
2013,10,01,06,04,0.00
2013,10,01,06,05,0.00
2013,10,01,06,06,0.00
2013,10,01,06,07,0.00
2013,10,01,06,08,0.00
2013,10,01,06,09,0.00
2013,10,01,06,10,0.00
2013,10,01,06,11,0.00
2013,10,01,06,12,0.00
2013,10,01,06,13,0.00
2013,10,01,06,14,0.00
2013,10,01,06,15,0.00
2013,10,01,06,16,0.00
2013,10,01,06,17,0.00
2013,10,01,06,18,0.00
2013,10,01,06,19,0.00
2013,10,01,06,20,0.00
2013,10,01,06,21,0.00
2013,10,01,06,22,0.00
2013,10,01,06,23,0.00
2013,10,01,06,24,0.00
2013,10,01,06,25,0.00
2013,10,01,06,26,0.00
2013,10,01,06,27,0.00
2013,10,01,06,28,0.00
2013,10,01,06,29,0.00
2013,10,01,06,30,0.00
2013,10,01,06,31,0.00
2013,10,01,06,32,0.00
2013,10,01,06,33,0.00
2013,10,01,06,34,0.00
2013,10,01,06,35,0.00
2013,10,01,06,36,0.00
2013,10,01,06,37,0.00
2013,10,01,06,38,0.00
2013,10,01,06,39,0.00
2013,10,01,06,40,0.00
2013,10,01,06,41,0.00
2013,10,01,06,42,0.00
2013,10,01,06,43,0.00
2013,10,01,06,44,0.00
2013,10,01,06,45,0.00
2013,10,01,06,46,0.00
2013,10,01,06,47,0.00
2013,10,01,06,48,0.00
2013,10,01,06,49,0.00
2013,10,01,06,50,0.00
2013,10,01,06,51,0.00
2013,10,01,06,52,0.00
2013,10,01,06,53,0.00
2013,10,01,06,54,0.00
2013,10,01,06,55,0.00
2013,10,01,06,56,0.00
2013,10,01,06,57,0.00
2013,10,01,06,58,0.00
2013,10,01,06,59,0.00
2013,10,01,07,00,0.00
2013,10,01,07,01,0.00
2013,10,01,07,02,0.00
2013,10,01,07,03,0.00
2013,10,01,07,04,0.00
2013,10,01,07,05,0.00
2013,10,01,07,06,0.00
2013,10,01,07,07,0.00
2013,10,01,07,08,0.00
2013,10,01,07,09,0.00
2013,10,01,07,10,0.00
2013,10,01,07,11,0.00
2013,10,01,07,12,0.00
2013,10,01,07,13,0.00
2013,10,01,07,14,0.00
2013,10,01,07,15,0.00
2013,10,01,07,16,0.00
2013,10,01,07,17,0.00
2013,10,01,07,18,0.00
2013,10,01,07,19,0.00
2013,10,01,07,20,0.00
2013,10,01,07,21,0.00
2013,10,01,07,22,0.00
2013,10,01,07,23,0.00
2013,10,01,07,24,0.00
2013,10,01,07,25,0.00
2013,10,01,07,26,0.00
2013,10,01,07,27,0.00
2013,10,01,07,28,0.00
2013,10,01,07,29,0.00
2013,10,01,07,30,0.00
2013,10,01,07,31,0.00
2013,10,01,07,32,0.00
2013,10,01,07,33,0.00
2013,10,01,07,34,0.00
2013,10,01,07,35,0.00
2013,10,01,07,36,0.00
2013,10,01,07,37,0.00
2013,10,01,07,38,0.00
2013,10,01,07,39,0.00
2013,10,01,07,40,0.00
2013,10,01,07,41,0.00
2013,10,01,07,42,0.00
2013,10,01,07,43,3.00
2013,10,01,07,44,5.00
2013,10,01,07,45,5.00
2013,10,01,07,46,6.90
2013,10,01,07,47,7.00
2013,10,01,07,48,7.90
2013,10,01,07,49,9.00
2013,10,01,07,50,9.00
2013,10,01,07,51,10.80
2013,10,01,07,52,12.00
2013,10,01,07,53,12.70
2013,10,01,07,54,15.00
2013,10,01,07,55,17.10
2013,10,01,07,56,18.70
2013,10,01,07,57,20.80
2013,10,01,07,58,21.40
2013,10,01,07,59,23.60
2013,10,01,08,00,25.50
2013,10,01,08,01,27.20
2013,10,01,08,02,29.60
2013,10,01,08,03,32.00
2013,10,01,08,04,35.40
2013,10,01,08,05,37.00
2013,10,01,08,06,36.00
2013,10,01,08,07,35.00
2013,10,01,08,08,36.60
2013,10,01,08,09,39.10
2013,10,01,08,10,43.20
2013,10,01,08,11,49.70
2013,10,01,08,12,56.00
2013,10,01,08,13,60.60
2013,10,01,08,14,64.50
2013,10,01,08,15,69.30
2013,10,01,08,16,75.10
2013,10,01,08,17,79.90
2013,10,01,08,18,78.90
2013,10,01,08,19,75.00
2013,10,01,08,20,72.30
2013,10,01,08,21,69.00
2013,10,01,08,22,67.00
2013,10,01,08,23,67.00
2013,10,01,08,24,64.40
2013,10,01,08,25,56.50
2013,10,01,08,26,49.70
2013,10,01,08,27,45.70
2013,10,01,08,28,43.40
2013,10,01,08,29,42.00
2013,10,01,08,30,42.00
2013,10,01,08,31,42.00
2013,10,01,08,32,42.00
2013,10,01,08,33,39.80
2013,10,01,08,34,39.00
2013,10,01,08,35,39.00
2013,10,01,08,36,37.80
2013,10,01,08,37,37.00
2013,10,01,08,38,37.10
2013,10,01,08,39,39.00
2013,10,01,08,40,39.00
2013,10,01,08,41,39.00
2013,10,01,08,42,37.90
2013,10,01,08,43,35.50
2013,10,01,08,44,33.20
2013,10,01,08,45,33.00
2013,10,01,08,46,33.70
2013,10,01,08,47,35.00
2013,10,01,08,48,36.20
2013,10,01,08,49,38.50
2013,10,01,08,50,39.90
2013,10,01,08,51,39.80
2013,10,01,08,52,39.00
2013,10,01,08,53,39.00
2013,10,01,08,54,39.00
2013,10,01,08,55,39.80
2013,10,01,08,56,40.00
2013,10,01,08,57,40.00
2013,10,01,08,58,40.80
2013,10,01,08,59,44.20
2013,10,01,09,00,48.00
2013,10,01,09,01,49.00
2013,10,01,09,02,49.00
2013,10,01,09,03,47.80
2013,10,01,09,04,42.30
2013,10,01,09,05,39.50
2013,10,01,09,06,39.70
2013,10,01,09,07,40.00
2013,10,01,09,08,42.00
2013,10,01,09,09,42.50
2013,10,01,09,10,45.30
2013,10,01,09,11,48.00
2013,10,01,09,12,47.60
2013,10,01,09,13,47.00
2013,10,01,09,14,45.70
2013,10,01,09,15,44.00
2013,10,01,09,16,45.30
2013,10,01,09,17,48.10
2013,10,01,09,18,52.70
2013,10,01,09,19,57.70
2013,10,01,09,20,62.20
2013,10,01,09,21,63.00
2013,10,01,09,22,63.00
2013,10,01,09,23,63.00
2013,10,01,09,24,63.00
2013,10,01,09,25,62.10
2013,10,01,09,26,62.00
2013,10,01,09,27,62.00
2013,10,01,09,28,62.50
2013,10,01,09,29,64.20
2013,10,01,09,30,66.50
2013,10,01,09,31,70.10
2013,10,01,09,32,74.50
2013,10,01,09,33,77.10
2013,10,01,09,34,81.10
2013,10,01,09,35,83.00
2013,10,01,09,36,83.00
2013,10,01,09,37,83.00
2013,10,01,09,38,83.00
2013,10,01,09,39,83.40
2013,10,01,09,40,86.10
2013,10,01,09,41,89.30
2013,10,01,09,42,92.60
2013,10,01,09,43,95.00
2013,10,01,09,44,94.40
2013,10,01,09,45,93.80
2013,10,01,09,46,96.10
2013,10,01,09,47,97.70
2013,10,01,09,48,99.70
2013,10,01,09,49,102.40
2013,10,01,09,50,105.60
2013,10,01,09,51,108.90
2013,10,01,09,52,114.00
2013,10,01,09,53,118.90
2013,10,01,09,54,124.50
2013,10,01,09,55,128.00
2013,10,01,09,56,127.70
2013,10,01,09,57,126.10
2013,10,01,09,58,123.80
2013,10,01,09,59,123.00
2013,10,01,10,00,124.70
2013,10,01,10,01,131.60
2013,10,01,10,02,141.90
2013,10,01,10,03,151.60
2013,10,01,10,04,160.10
2013,10,01,10,05,164.60
2013,10,01,10,06,164.90
2013,10,01,10,07,162.80
2013,10,01,10,08,158.90
2013,10,01,10,09,145.00
2013,10,01,10,10,129.40
2013,10,01,10,11,121.10
2013,10,01,10,12,114.60
2013,10,01,10,13,114.00
2013,10,01,10,14,112.90
2013,10,01,10,15,110.00
2013,10,01,10,16,107.70
2013,10,01,10,17,110.10
2013,10,01,10,18,117.50
2013,10,01,10,19,115.50
2013,10,01,10,20,114.80
2013,10,01,10,21,118.60
2013,10,01,10,22,125.70
2013,10,01,10,23,135.30
2013,10,01,10,24,140.60
2013,10,01,10,25,139.50
2013,10,01,10,26,138.50
2013,10,01,10,27,133.20
2013,10,01,10,28,125.90
2013,10,01,10,29,115.30
2013,10,01,10,30,106.90
2013,10,01,10,31,102.90
2013,10,01,10,32,99.10
2013,10,01,10,33,98.00
2013,10,01,10,34,98.00
2013,10,01,10,35,98.00
2013,10,01,10,36,97.50
2013,10,01,10,37,94.30
2013,10,01,10,38,93.80
2013,10,01,10,39,96.30
2013,10,01,10,40,97.00
2013,10,01,10,41,99.90
2013,10,01,10,42,108.80
2013,10,01,10,43,123.00
2013,10,01,10,44,133.00
2013,10,01,10,45,142.70
2013,10,01,10,46,146.00
2013,10,01,10,47,146.10
2013,10,01,10,48,148.50
2013,10,01,10,49,148.70
2013,10,01,10,50,140.30
2013,10,01,10,51,133.90
2013,10,01,10,52,130.40
2013,10,01,10,53,127.10
2013,10,01,10,54,125.00
2013,10,01,10,55,125.00
2013,10,01,10,56,126.00
2013,10,01,10,57,127.60
2013,10,01,10,58,131.00
2013,10,01,10,59,132.30
2013,10,01,11,00,136.00
2013,10,01,11,01,141.70
2013,10,01,11,02,150.50
2013,10,01,11,03,157.00
2013,10,01,11,04,158.00
2013,10,01,11,05,161.00
2013,10,01,11,06,171.70
2013,10,01,11,07,174.20
2013,10,01,11,08,219.70
2013,10,01,11,09,243.00
2013,10,01,11,10,243.30
2013,10,01,11,11,259.00
2013,10,01,11,12,218.60
2013,10,01,11,13,208.70
2013,10,01,11,14,199.80
2013,10,01,11,15,192.00
2013,10,01,11,16,182.20
2013,10,01,11,17,178.90
2013,10,01,11,18,176.10
2013,10,01,11,19,168.40
2013,10,01,11,20,163.30
2013,10,01,11,21,159.10
2013,10,01,11,22,156.20
2013,10,01,11,23,154.60
2013,10,01,11,24,152.30
2013,10,01,11,25,149.60
2013,10,01,11,26,146.70
2013,10,01,11,27,144.50
2013,10,01,11,28,144.00
2013,10,01,11,29,144.00
2013,10,01,11,30,144.70
2013,10,01,11,31,147.00
2013,10,01,11,32,148.60
2013,10,01,11,33,152.10
2013,10,01,11,34,158.20
2013,10,01,11,35,164.60
2013,10,01,11,36,173.70
2013,10,01,11,37,182.20
2013,10,01,11,38,189.70
2013,10,01,11,39,192.80
2013,10,01,11,40,195.10
2013,10,01,11,41,197.70
2013,10,01,11,42,200.70
2013,10,01,11,43,204.20
2013,10,01,11,44,208.00
2013,10,01,11,45,212.40
2013,10,01,11,46,216.40
2013,10,01,11,47,220.00
2013,10,01,11,48,220.00
2013,10,01,11,49,217.70
2013,10,01,11,50,216.00
2013,10,01,11,51,214.40
2013,10,01,11,52,214.20
2013,10,01,11,53,217.30
2013,10,01,11,54,222.10
2013,10,01,11,55,227.80
2013,10,01,11,56,234.30
2013,10,01,11,57,236.00
2013,10,01,11,58,236.90
2013,10,01,11,59,236.00
2013,10,01,12,00,236.50
2013,10,01,12,01,238.30
2013,10,01,12,02,242.00
2013,10,01,12,03,242.90
2013,10,01,12,04,241.00
2013,10,01,12,05,241.60
2013,10,01,12,06,245.30
2013,10,01,12,07,255.10
2013,10,01,12,08,268.00
2013,10,01,12,09,273.90
2013,10,01,12,10,280.10
2013,10,01,12,11,294.00
2013,10,01,12,12,313.50
2013,10,01,12,13,330.20
2013,10,01,12,14,304.00
2013,10,01,12,15,306.00
2013,10,01,12,16,330.00
2013,10,01,12,17,383.00
2013,10,01,12,18,469.00
2013,10,01,12,19,469.00
2013,10,01,12,20,469.00
2013,10,01,12,21,495.10
2013,10,01,12,22,765.50
2013,10,01,12,23,796.00
2013,10,01,12,24,754.80
2013,10,01,12,25,717.00
2013,10,01,12,26,717.00
2013,10,01,12,27,710.50
2013,10,01,12,28,645.00
2013,10,01,12,29,539.90
2013,10,01,12,30,406.90
2013,10,01,12,31,475.00
2013,10,01,12,32,497.00
2013,10,01,12,33,342.60
2013,10,01,12,34,353.00
2013,10,01,12,35,353.00
2013,10,01,12,36,332.30
2013,10,01,12,37,312.20
2013,10,01,12,38,326.50
2013,10,01,12,39,299.70
2013,10,01,12,40,298.50
2013,10,01,12,41,323.50
2013,10,01,12,42,343.50
2013,10,01,12,43,329.00
2013,10,01,12,44,304.10
2013,10,01,12,45,304.70
2013,10,01,12,46,312.30
2013,10,01,12,47,322.50
2013,10,01,12,48,322.00
2013,10,01,12,49,327.20
2013,10,01,12,50,337.50
2013,10,01,12,51,359.00
2013,10,01,12,52,402.70
2013,10,01,12,53,367.40
2013,10,01,12,54,411.20
2013,10,01,12,55,462.20
2013,10,01,12,56,384.40
2013,10,01,12,57,334.20
2013,10,01,12,58,325.70
2013,10,01,12,59,323.00
2013,10,01,13,00,321.10
2013,10,01,13,01,314.60
2013,10,01,13,02,308.90
2013,10,01,13,03,305.50
2013,10,01,13,04,302.10
2013,10,01,13,05,296.50
2013,10,01,13,06,288.10
2013,10,01,13,07,279.30
2013,10,01,13,08,272.10
2013,10,01,13,09,270.40
2013,10,01,13,10,268.30
2013,10,01,13,11,265.90
2013,10,01,13,12,265.00
2013,10,01,13,13,265.00
2013,10,01,13,14,263.80
2013,10,01,13,15,262.00
2013,10,01,13,16,262.00
2013,10,01,13,17,260.90
2013,10,01,13,18,257.80
2013,10,01,13,19,255.30
2013,10,01,13,20,252.70
2013,10,01,13,21,249.60
2013,10,01,13,22,244.70
2013,10,01,13,23,239.50
2013,10,01,13,24,234.70
2013,10,01,13,25,230.50
2013,10,01,13,26,229.00
2013,10,01,13,27,229.00
2013,10,01,13,28,230.30
2013,10,01,13,29,234.30
2013,10,01,13,30,238.20
2013,10,01,13,31,243.90
2013,10,01,13,32,252.30
2013,10,01,13,33,260.10
2013,10,01,13,34,265.40
2013,10,01,13,35,268.20
2013,10,01,13,36,270.60
2013,10,01,13,37,276.30
2013,10,01,13,38,290.90
2013,10,01,13,39,307.20
2013,10,01,13,40,301.00
2013,10,01,13,41,283.00
2013,10,01,13,42,266.30
2013,10,01,13,43,252.70
2013,10,01,13,44,242.70
2013,10,01,13,45,235.80
2013,10,01,13,46,232.90
2013,10,01,13,47,233.30
2013,10,01,13,48,235.60
2013,10,01,13,49,236.80
2013,10,01,13,50,234.90
2013,10,01,13,51,229.80
2013,10,01,13,52,223.00
2013,10,01,13,53,215.70
2013,10,01,13,54,209.80
2013,10,01,13,55,207.00
2013,10,01,13,56,207.00
2013,10,01,13,57,207.90
2013,10,01,13,58,209.00
2013,10,01,13,59,209.00
2013,10,01,14,00,209.00
2013,10,01,14,01,211.40
2013,10,01,14,02,213.30
2013,10,01,14,03,214.90
2013,10,01,14,04,218.30
2013,10,01,14,05,222.10
2013,10,01,14,06,224.90
2013,10,01,14,07,229.20
2013,10,01,14,08,230.60
2013,10,01,14,09,233.80
2013,10,01,14,10,236.60
2013,10,01,14,11,240.00
2013,10,01,14,12,242.80
2013,10,01,14,13,243.00
2013,10,01,14,14,243.00
2013,10,01,14,15,242.00
2013,10,01,14,16,241.00
2013,10,01,14,17,241.00
2013,10,01,14,18,242.90
2013,10,01,14,19,244.00
2013,10,01,14,20,244.00
2013,10,01,14,21,245.80
2013,10,01,14,22,249.30
2013,10,01,14,23,254.10
2013,10,01,14,24,258.20
2013,10,01,14,25,262.50
2013,10,01,14,26,264.00
2013,10,01,14,27,264.00
2013,10,01,14,28,264.00
2013,10,01,14,29,264.00
2013,10,01,14,30,271.10
2013,10,01,14,31,275.20
2013,10,01,14,32,279.80
2013,10,01,14,33,279.90
2013,10,01,14,34,278.30
2013,10,01,14,35,278.00
2013,10,01,14,36,279.30
2013,10,01,14,37,282.20
2013,10,01,14,38,286.40
2013,10,01,14,39,291.40
2013,10,01,14,40,294.00
2013,10,01,14,41,293.90
2013,10,01,14,42,291.20
2013,10,01,14,43,286.50
2013,10,01,14,44,281.40
2013,10,01,14,45,278.40
2013,10,01,14,46,275.00
2013,10,01,14,47,272.20
2013,10,01,14,48,271.80
2013,10,01,14,49,271.00
2013,10,01,14,50,271.00
2013,10,01,14,51,269.80
2013,10,01,14,52,267.60
2013,10,01,14,53,264.10
2013,10,01,14,54,258.90
2013,10,01,14,55,253.30
2013,10,01,14,56,249.00
2013,10,01,14,57,248.00
2013,10,01,14,58,249.50
2013,10,01,14,59,254.80
2013,10,01,15,00,262.10
2013,10,01,15,01,273.20
2013,10,01,15,02,289.40
2013,10,01,15,03,308.70
2013,10,01,15,04,318.90
2013,10,01,15,05,289.40
2013,10,01,15,06,266.00
2013,10,01,15,07,252.30
2013,10,01,15,08,245.00
2013,10,01,15,09,240.30
2013,10,01,15,10,235.00
2013,10,01,15,11,231.70
2013,10,01,15,12,228.40
2013,10,01,15,13,225.40
2013,10,01,15,14,221.90
2013,10,01,15,15,220.20
2013,10,01,15,16,216.70
2013,10,01,15,17,213.90
2013,10,01,15,18,213.00
2013,10,01,15,19,212.10
2013,10,01,15,20,211.00
2013,10,01,15,21,209.60
2013,10,01,15,22,208.90
2013,10,01,15,23,207.00
2013,10,01,15,24,206.70
2013,10,01,15,25,204.20
2013,10,01,15,26,200.80
2013,10,01,15,27,196.40
2013,10,01,15,28,192.40
2013,10,01,15,29,189.30
2013,10,01,15,30,183.70
2013,10,01,15,31,179.70
2013,10,01,15,32,175.60
2013,10,01,15,33,171.70
2013,10,01,15,34,167.30
2013,10,01,15,35,165.00
2013,10,01,15,36,165.00
2013,10,01,15,37,165.00
2013,10,01,15,38,165.00
2013,10,01,15,39,163.40
2013,10,01,15,40,159.90
2013,10,01,15,41,154.90
2013,10,01,15,42,149.20
2013,10,01,15,43,143.50
2013,10,01,15,44,137.30
2013,10,01,15,45,135.00
2013,10,01,15,46,137.10
2013,10,01,15,47,139.00
2013,10,01,15,48,138.30
2013,10,01,15,49,135.90
2013,10,01,15,50,132.90
2013,10,01,15,51,128.00
2013,10,01,15,52,125.50
2013,10,01,15,53,129.70
2013,10,01,15,54,135.10
2013,10,01,15,55,139.30
2013,10,01,15,56,141.70
2013,10,01,15,57,143.70
2013,10,01,15,58,145.80
2013,10,01,15,59,142.10
2013,10,01,16,00,132.50
2013,10,01,16,01,123.60
2013,10,01,16,02,122.40
2013,10,01,16,03,124.70
2013,10,01,16,04,127.20
2013,10,01,16,05,128.00
2013,10,01,16,06,129.00
2013,10,01,16,07,128.90
2013,10,01,16,08,127.30
2013,10,01,16,09,121.60
2013,10,01,16,10,115.50
2013,10,01,16,11,113.00
2013,10,01,16,12,113.40
2013,10,01,16,13,115.20
2013,10,01,16,14,117.50
2013,10,01,16,15,120.00
2013,10,01,16,16,123.40
2013,10,01,16,17,126.10
2013,10,01,16,18,129.90
2013,10,01,16,19,134.00
2013,10,01,16,20,136.50
2013,10,01,16,21,137.00
2013,10,01,16,22,136.40
2013,10,01,16,23,131.60
2013,10,01,16,24,123.30
2013,10,01,16,25,117.50
2013,10,01,16,26,114.50
2013,10,01,16,27,114.20
2013,10,01,16,28,116.40
2013,10,01,16,29,119.10
2013,10,01,16,30,121.00
2013,10,01,16,31,121.00
2013,10,01,16,32,120.20
2013,10,01,16,33,119.80
2013,10,01,16,34,118.00
2013,10,01,16,35,117.20
2013,10,01,16,36,117.10
2013,10,01,16,37,120.00
2013,10,01,16,38,124.30
2013,10,01,16,39,128.60
2013,10,01,16,40,132.80
2013,10,01,16,41,137.60
2013,10,01,16,42,145.10
2013,10,01,16,43,150.10
2013,10,01,16,44,154.50
2013,10,01,16,45,158.40
2013,10,01,16,46,160.00
2013,10,01,16,47,159.10
2013,10,01,16,48,156.70
2013,10,01,16,49,152.10
2013,10,01,16,50,148.00
2013,10,01,16,51,140.90
2013,10,01,16,52,134.20
2013,10,01,16,53,130.20
2013,10,01,16,54,128.00
2013,10,01,16,55,128.00
2013,10,01,16,56,130.00
2013,10,01,16,57,134.70
2013,10,01,16,58,137.70
2013,10,01,16,59,139.00
2013,10,01,17,00,137.70
2013,10,01,17,01,134.60
2013,10,01,17,02,130.10
2013,10,01,17,03,126.10
2013,10,01,17,04,122.30
2013,10,01,17,05,120.50
2013,10,01,17,06,120.00
2013,10,01,17,07,120.00
2013,10,01,17,08,117.90
2013,10,01,17,09,115.60
2013,10,01,17,10,112.90
2013,10,01,17,11,109.90
2013,10,01,17,12,106.40
2013,10,01,17,13,100.90
2013,10,01,17,14,96.90
2013,10,01,17,15,93.90
2013,10,01,17,16,89.80
2013,10,01,17,17,86.90
2013,10,01,17,18,84.60
2013,10,01,17,19,83.20
2013,10,01,17,20,80.50